Погода в Бурке

Австралия     30°05′25″S   145°56′14″E
темп.,
°C
ветер,
м/с
пор.,
м/с
влажн.,
%
обл.,
%
осадки,
мм/ч
давл.,
гПа
погр.,
м
19 мая, ср
ср1901:00+10вюв33560 0.0 102721
04:00+9юв33620 0.0 102724
07:00+8вюв33690 0.0 102826
10:00+15в44460 0.0 1029449
13:00+19всв22332 0.0 10261068
16:00+20вюв1129100 0.0 10251223
19:00+15юв224069 0.0 102611
22:00+14вюв334485 0.0 102610
20 мая, чт
чт2001:00+12вюв33525 0.0 102615
04:00+11в44572 0.0 102524
07:00+11в33636 0.0 102720
10:00+17всв33475 0.0 1028423
13:00+21вюв0141100 0.0 10251200
16:00+22ю2236100 0.0 10241602
19:00+17ю444497 0.0 102623
22:00+15юв464998 0.0 102775
21 мая, пт
пт2101:00+13юв344999 0.0 102749
04:00+12вюв4550100 0.0 102658
07:00+10юв465693 0.0 102764
10:00+17вюв564198 0.0 1028479
13:00+21вюв442664 0.0 10251176
16:00+22юв5522100 0.0 10231493
19:00+17вюв463399 0.0 102466
22:00+15вюв4541100 0.0 102550
22 мая, сб
сб2201:00+14вюв4649100 0.0 102493
04:00+13в475694 0.0 1024111
07:00+11в577378 0.0 102593
10:00+18св574756 0.0 1025527
13:00+22св5537100 0.0 10231443
16:00+22всв4434100 0.0 10221855
19:00+17в565199 0.0 102365
22:00+16в585695 0.0 1024137
23 мая, вс
вс2301:00+15в456112 0.0 102364
04:00+13в456615 0.0 102347
07:00+12в44705 0.0 102437
10:00+19всв56445 0.0 1025550
13:00+23св454099 0.0 10221544
16:00+23всв45377 0.0 10211920
19:00+18в57515 0.0 102287
22:00+16в59603 0.0 1023119